Location: Azul
(36.7830°S, 59.8500°W)
Time: 02:17:17
(UTC-03:00)

ISS - Pass Details

Date: 24 May 2019
Orbit: 407 x 410 km, 51.6° (Epoch: 23 May)

Event Time Altitude Azimuth Distance (km) Brightness Sun altitude
Exits shadow 05:49:54 - 6° (N) 1,959 -0.2 -25.2°
Reaches altitude 10° 05:51:58 10° 32° (NNE) 1,481 -0.5 -24.8°
Maximum altitude 05:53:10 12° 53° (NE) 1,394 -0.3 -24.6°
Drops below altitude 10° 05:54:22 10° 75° (ENE) 1,489 0.1 -24.3°
Sets 05:57:38 0° 109° (ESE) 2,362 1.1 -23.7°
